Regional Weather Roundup
Issued by NWS

Home | Current Version | Previous Version | Graphics & Text | Print | Product List | Glossary On
Versions: 1 2 3 4 5 6 7 8 9 10 11 12 13 14 15 16 17 18 19 20 21 22 23 24 25 26 27 28 29 30 31 32 33 34 35 36 37 38 39 40 41 42 43 44 45 46 47 48 49 50
237
ASUS43 KMPX 190810
RWRMN
WEATHER ROUNDUP FOR MINNESOTA
NATIONAL WEATHER SERVICE TWIN CITIES/CHANHASSEN MN
300 AM CDT TUE SEP 19 2017


NOTE: "FAIR" INDICATES FEW OR NO CLOUDS BELOW 12,000 FEET WITH NO
SIGNIFICANT WEATHER AND/OR OBSTRUCTIONS TO VISIBILITY. N/A MEANS
CURRENT SKY AND/OR WEATHER CONDITIONS ARE NOT AVAILABLE.

MNZ060>063-068>070-190900-
   Twin Cities Metro

CITY           SKY/WX    TMP DP  RH WIND       PRES   REMARKS
TWIN CITIES    CLOUDY    60  58  92 SE7       29.93S
ST PAUL        CLOUDY    59  57  93 SE8       29.94S
CRYSTAL        CLOUDY    59  54  83 E5        29.91F
BLAINE         CLOUDY    61  59  94 SE3       29.93S
LAKEVILLE      CLOUDY    55  55 100 CALM      29.93S
EDEN PRAIRIE   CLOUDY    60  57  89 E8        29.91S
SOUTH ST PAUL  CLOUDY    59  58  96 CALM      29.93F
LAKE ELMO      CLOUDY    59  55  88 CALM      29.95S
$$
MNZ001>005-007-008-013>017-022>024-027-028-190900-
   Northwest Minnesota

CITY           SKY/WX    TMP DP  RH WIND       PRES   REMARKS
BEMIDJI        CLOUDY    54  53  96 SE7       29.90F
HALLOCK        CLOUDY    57  57 100 SE9       29.82S
ROSEAU         CLOUDY    57  52  82 E6        29.86F HAZE
WARROAD        CLOUDY    55  52  88 SE7       29.88F FOG
THIEF RVR FALL CLOUDY    57  55  93 SE13      29.85F
CROOKSTON      CLOUDY    59  55  88 SE9       29.84S
FOSSTON        CLOUDY    55  54  94 SE7       29.86F
DETROIT LAKES  CLOUDY    55  55 100 SE12      29.87F FOG
MOORHEAD       CLOUDY    61  57  88 SE9       29.83F FOG
PARK RAPIDS    CLOUDY    55  53  93 SE9       29.90F
MAHNOMEN       CLOUDY    56  55  95 SE8       29.85F
$$
MNZ006-009>011-018-025>026-190900-
   North Central Minnesota

CITY           SKY/WX    TMP DP  RH WIND       PRES   REMARKS
BAUDETTE       CLOUDY    54  54 100 SE8       29.91F
FLAG ISLAND    CLOUDY    55  54  94 SE13      29.88F
INTL FALLS     CLOUDY    54  50  86 VRB5      29.94F
WASKISH        CLOUDY    54  54 100 SE3       29.91F FOG
BIG FORK       CLOUDY    54  52  94 SE3       29.94F
LONGVILLE      CLOUDY    54  54 100 SE3       29.92F
GRAND RAPIDS   CLOUDY    53  52  96 SE6       29.96F
CRANE LAKE     CLOUDY    54  52  94 CALM      29.98F
ORR            CLOUDY    52  48  87 SE3       29.94F FOG
COOK           CLOUDY    54  50  87 CALM      29.97F
WALKER         CLOUDY    54  52  94 SE3       29.91F
$$
MNZ012-019>021-037-190900-
   Northeast Minnesota

CITY           SKY/WX    TMP DP  RH WIND       PRES   REMARKS
DULUTH         DRIZZLE   54  54 100 SE7       29.97F FOG
ELY            CLOUDY    54  48  82 CALM      29.99S
HIBBING        CLOUDY    52  50  93 SE5       29.96F
EVELETH        CLOUDY    54  52  93 CALM      29.98F
DULUTH HARBOR  CLOUDY    59  55  88 NE6       29.99S
TWO HARBORS    CLOUDY    57  54  88 NE3       29.98S
SILVER BAY     CLOUDY    55  54  94 CALM      29.99S
GRAND MARAIS     N/A     58  55  90 NE3       30.01S
G MARAIS ARPRT CLOUDY    52  46  82 SE3       30.02F
$$
MNZ029>031-032-039>041-046>048-054>057-064-190900-
   West Central Minnesota

CITY           SKY/WX    TMP DP  RH WIND       PRES   REMARKS
FERGUS FALLS   CLOUDY    59  59 100 SE9       29.85F
WHEATON        CLOUDY    61  59  94 SE13      29.84F FOG
MORRIS         FOG       61  61 100 SE10      29.85F VSB 1/2
ALEXANDRIA     FOG       57  57 100 E10       29.90F VSB 3/4
ELBOW LAKE     CLOUDY    58  58 100 SE8       29.86F FOG
WADENA         FOG       54  54 100 SE10      29.90S VSB 3/4
GLENWOOD       FOG       57  57 100 E7        29.89F VSB 1/4
APPLETON       CLOUDY    63  61  94 SE8       29.84F FOG
BENSON         FOG       61  61 100 SE6       29.88F VSB 1/2
ORTONVILLE     CLOUDY    63  61  94 NE9       29.83F FOG
MADISON        CLOUDY    66  66 100 SE9       29.83F FOG
WILLMAR        FOG       63  61  94 SE5       29.89F VSB 1/4
$$
MNZ033>034-036-042>043-049>051-058-059-190900-
   Central Minnesota

CITY           SKY/WX    TMP DP  RH WIND       PRES   REMARKS
ST CLOUD       CLOUDY    56  56 100 E5        29.92S FOG
PAYNESVILLE    FOG       58  58 100 CALM      29.91S VSB 1/2
AITKIN         CLOUDY    54  52  94 E3        29.93F
PINE RIVER     CLOUDY    52  50  93 SE6       29.96S
BRAINERD       CLOUDY    54  54 100 SE5       29.93F FOG
STAPLES        CLOUDY    54  54 100 SE3       29.91S FOG
LONG PRAIRIE   SNOW      54  54 100 CALM      29.91F VSB 1/4
LITTLE FALLS   FOG       54  52  94 SE3       29.92S VSB 3/4
LITCHFIELD     FOG       61  61 100 SE8       29.90F VSB 1
BUFFALO        CLOUDY    58  55  92 E3        29.93S
MAPLE LAKE     CLOUDY    59  58  97 E3        29.92F
HUTCHINSON     CLOUDY    61  60  98 E6        29.91F FOG
$$
MNZ037-044-045-052-053-190900-
   East Central Minnesota

CITY           SKY/WX    TMP DP  RH WIND       PRES   REMARKS
PRINCETON      CLOUDY    57  55  94 CALM      29.93S
MORA           CLOUDY    54  52  94 CALM      29.96S
CAMBRIDGE      CLOUDY    61  55  82 SE3       29.94S
RUSH CITY      CLOUDY    57  54  91 CALM      29.94S
MOOSE LAKE     CLOUDY    54  54 100 CALM      29.95S
HINCKLEY       CLOUDY    55  55 100 E3        29.95F
CLOQUET        CLOUDY    54  52  94 E5        29.97F FOG
MCGREGOR       CLOUDY    54  52  94 CALM      29.95F
$$
MNZ071>073-080-081-089-090-097-098-190900-
   Southwest Minnesota

CITY           SKY/WX    TMP DP  RH WIND       PRES   REMARKS
MONTEVIDEO     CLOUDY    63  63 100 S7        29.85F FOG
GRANITE FALLS  CLOUDY    65  64  98 E5        29.87F FOG
CANBY          FOG       64  63  97 E5        29.85S VSB 1/4
MARSHALL       MOCLDY    63  63 100 SE6       29.85F FOG
REDWOOD FALLS  CLOUDY    64  62  93 SE6       29.87F FOG
OLIVIA         FOG       61  59  94 SE5       29.88S VSB 3/4
PIPESTONE      CLOUDY    66  64  94 S10       29.85F FOG
WINDOM         CLOUDY    64  63  94 S6        29.89S FOG
WORTHINGTON    CLOUDY    64  63  96 S7        29.89S FOG
JACKSON        CLOUDY    63  63 100 S8        29.90S FOG
TRACY          MOCLDY    64  64 100 S6        29.86F FOG
SLAYTON        CLOUDY    63  61  95 SE3       29.88F FOG
$$
MNZ065>067-074>077-082>085-091>093-190900-
   South Central Minnesota

CITY           SKY/WX    TMP DP  RH WIND       PRES   REMARKS
NEW ULM        FOG       61  61 100 S7        29.89S VSB 1
ST JAMES       FOG       63  63 100 SE7       29.90F VSB 1/2
FAIRMONT       FOG       62  61  96 S8        29.90F VSB 1/4
GLENCOE        CLOUDY    60  61 100 E3        29.90F
FARIBAULT      MOCLDY    59  57  94 SE3       29.93S
OWATONNA       CLOUDY    61  57  88 SE7       29.93S
WASECA         CLOUDY    59  57  94 SE3       29.93S
ALBERT LEA     CLOUDY    64  63  94 S5        29.93F FOG
$$
MNZ078>079-086>088-094>096-190900-
   Southeast Minnesota

CITY           SKY/WX    TMP DP  RH WIND       PRES   REMARKS
ROCHESTER      CLOUDY    56  55  97 SE7       29.95F
RED WING       CLOUDY    59  55  88 E5        29.93F
STANTON        CLOUDY    60  57  90 CALM      29.92F
DODGE CENTER   CLOUDY    57  55  94 SE6       29.94S
WINONA         CLOUDY    59  57  94 SE6       29.96S
AUSTIN         CLOUDY    61  57  88 CALM      29.93F
PRESTON        MOCLDY    55  54  94 SE3       29.96F
$$
ABBREVIATIONS USED IN REMARKS
   TC - TEMPERATURES IN CELSIUS
  WCI - WIND CHILL INDEX
   HX - HEAT INDEX
  VSB - VISIBILITY
$$




USA.gov is the U.S. government's official web portal to all federal, state and local government web resources and services.